AAL7574 KCLT-KDFW

Flight info

Callsign AAL7574
Flight time N/A
Altitude 40000
Route ESTRR5 IPTAY CHOPZ THRSR VLKNN Q30 IZAAC YUYUN BEREE3
Aircraft B772/H-SDE1E3FGHIJ1J3J4J5M1P2RWXYZ/AA1DCD

Departure

Time N/A
Airport Charlotte Douglas International Airport (KCLT)

Arrival

Time 2026-05-04 21:49
Airport Dallas Fort Worth International Airport (KDFW)
Time Latitude Longitude Altitude Speed Heading
2026-05-04 20:36 33.36949 -90.53166 39943 ft 399 kts 259°
2026-05-04 20:37 33.34681 -90.59266 39942 ft 405 kts 259°
2026-05-04 20:37 33.32369 -90.65460 39951 ft 403 kts 259°
2026-05-04 20:38 33.30084 -90.71573 39972 ft 404 kts 259°
2026-05-04 20:38 33.27806 -90.77650 39966 ft 400 kts 259°
2026-05-04 20:39 33.25511 -90.83780 39956 ft 408 kts 259°
2026-05-04 20:39 33.23201 -90.89914 39960 ft 400 kts 259°
2026-05-04 20:40 33.20916 -90.95986 39953 ft 402 kts 259°
2026-05-04 20:40 33.18599 -91.02134 39955 ft 405 kts 259°
2026-05-04 20:41 33.16282 -91.08262 39950 ft 406 kts 259°
2026-05-04 20:41 33.13961 -91.14389 39946 ft 403 kts 259°
2026-05-04 20:42 33.11644 -91.20504 39945 ft 408 kts 259°
2026-05-04 20:42 33.09311 -91.26635 39940 ft 402 kts 259°
2026-05-04 20:43 33.06992 -91.32737 39937 ft 407 kts 259°
2026-05-04 20:43 33.04656 -91.38854 39939 ft 402 kts 259°
2026-05-04 20:44 33.02327 -91.44951 39940 ft 403 kts 259°
2026-05-04 20:44 33.00001 -91.51031 39935 ft 404 kts 258°
2026-05-04 20:45 32.97661 -91.57136 39933 ft 405 kts 258°
2026-05-04 20:45 32.95333 -91.63188 39932 ft 400 kts 259°
2026-05-04 20:46 32.92992 -91.69283 39954 ft 407 kts 258°
2026-05-04 20:46 32.90642 -91.75371 39960 ft 400 kts 258°
2026-05-04 20:47 32.88304 -91.81434 39942 ft 405 kts 258°
2026-05-04 20:47 32.85955 -91.87499 39952 ft 402 kts 258°
2026-05-04 20:48 32.83620 -91.93523 39955 ft 401 kts 258°
2026-05-04 20:48 32.81265 -91.99597 39947 ft 404 kts 257°
2026-05-04 20:49 32.78922 -92.05610 39938 ft 399 kts 258°
2026-05-04 20:49 32.76567 -92.11665 39937 ft 405 kts 257°
2026-05-04 20:50 32.74209 -92.17700 39931 ft 400 kts 257°
2026-05-04 20:50 32.71863 -92.23703 39926 ft 404 kts 257°
2026-05-04 20:51 32.69477 -92.29793 39921 ft 401 kts 257°
2026-05-04 20:51 32.67123 -92.35797 39914 ft 404 kts 258°
2026-05-04 20:52 32.64741 -92.41853 39912 ft 401 kts 257°
2026-05-04 20:52 32.62380 -92.47848 39914 ft 401 kts 258°
2026-05-04 20:53 32.60000 -92.53887 39917 ft 403 kts 257°
2026-05-04 20:53 32.57627 -92.59888 39925 ft 400 kts 257°
2026-05-04 20:54 32.55242 -92.65922 39938 ft 405 kts 256°
2026-05-04 20:54 32.52861 -92.71918 39944 ft 400 kts 257°
2026-05-04 20:55 32.50479 -92.77924 39942 ft 404 kts 257°
2026-05-04 20:55 32.48097 -92.83906 39929 ft 402 kts 256°
2026-05-04 20:56 32.45776 -92.89918 39908 ft 396 kts 261°
2026-05-04 20:56 32.45044 -92.93010 39911 ft 383 kts 269°
2026-05-04 20:56 32.44714 -92.96105 39917 ft 375 kts 274°
2026-05-04 20:57 32.44276 -93.02289 39906 ft 377 kts 274°
2026-05-04 20:57 32.43818 -93.08473 39902 ft 377 kts 274°
2026-05-04 20:58 32.43350 -93.14624 39898 ft 375 kts 273°
2026-05-04 20:58 32.42875 -93.20776 39903 ft 376 kts 273°
2026-05-04 20:59 32.42395 -93.26915 39898 ft 374 kts 274°
2026-05-04 20:59 32.41910 -93.33075 39895 ft 375 kts 273°
2026-05-04 21:00 32.41424 -93.39198 39889 ft 375 kts 274°
2026-05-04 21:00 32.40934 -93.45330 39900 ft 374 kts 273°
2026-05-04 21:01 32.40439 -93.51502 39905 ft 377 kts 274°
2026-05-04 21:01 32.39941 -93.57657 39909 ft 374 kts 273°
2026-05-04 21:02 32.39442 -93.63778 39905 ft 374 kts 274°
2026-05-04 21:02 32.38940 -93.69937 39931 ft 378 kts 272°
2026-05-04 21:03 32.38432 -93.76078 39943 ft 373 kts 272°
2026-05-04 21:03 32.37926 -93.82194 39940 ft 375 kts 272°
2026-05-04 21:04 32.37415 -93.88331 39938 ft 376 kts 273°
2026-05-04 21:04 32.36898 -93.94480 39936 ft 373 kts 272°
2026-05-04 21:05 32.36384 -94.00588 39931 ft 373 kts 272°
2026-05-04 21:05 32.35865 -94.06700 39917 ft 375 kts 272°
2026-05-04 21:06 32.35342 -94.12831 39915 ft 373 kts 272°
2026-05-04 21:06 32.34817 -94.18954 39898 ft 374 kts 272°
2026-05-04 21:07 32.34285 -94.25124 39890 ft 376 kts 272°
2026-05-04 21:07 32.33750 -94.31274 39885 ft 375 kts 272°
2026-05-04 21:08 32.33212 -94.37446 39883 ft 377 kts 272°
2026-05-04 21:08 32.32669 -94.43627 39879 ft 377 kts 272°
2026-05-04 21:09 32.32125 -94.49779 39886 ft 376 kts 272°
2026-05-04 21:09 32.31580 -94.55926 39877 ft 379 kts 272°
2026-05-04 21:10 32.31027 -94.62119 39894 ft 379 kts 272°
2026-05-04 21:10 32.30471 -94.68304 39911 ft 379 kts 271°
2026-05-04 21:11 32.29910 -94.74519 39914 ft 380 kts 271°
2026-05-04 21:11 32.29347 -94.80726 39911 ft 381 kts 271°
2026-05-04 21:12 32.28780 -94.86935 39911 ft 382 kts 271°
2026-05-04 21:12 32.28209 -94.93144 39911 ft 379 kts 272°
2026-05-04 21:13 32.27635 -94.99372 39907 ft 381 kts 271°
2026-05-04 21:13 32.27004 -95.05581 39901 ft 382 kts 270°
2026-05-04 21:14 32.26335 -95.11794 39903 ft 381 kts 270°
2026-05-04 21:14 32.25666 -95.18000 39882 ft 379 kts 270°
2026-05-04 21:15 32.25334 -95.21062 39241 ft 375 kts 271°
2026-05-04 21:15 32.25219 -95.24100 38311 ft 369 kts 278°
2026-05-04 21:15 32.25293 -95.27105 37608 ft 366 kts 278°
2026-05-04 21:15 32.25377 -95.30110 36859 ft 366 kts 278°
2026-05-04 21:16 32.25458 -95.33094 36089 ft 365 kts 278°
2026-05-04 21:16 32.25539 -95.36088 35284 ft 365 kts 278°
2026-05-04 21:16 32.25619 -95.39087 34468 ft 371 kts 278°
2026-05-04 21:16 32.25705 -95.42206 33618 ft 391 kts 278°
2026-05-04 21:17 32.25789 -95.45432 32742 ft 397 kts 278°
2026-05-04 21:17 32.25870 -95.48676 31860 ft 399 kts 277°
2026-05-04 21:17 32.25950 -95.51941 30922 ft 401 kts 277°
2026-05-04 21:17 32.26029 -95.55207 30208 ft 397 kts 277°
2026-05-04 21:18 32.26107 -95.58434 29661 ft 392 kts 277°
2026-05-04 21:18 32.26184 -95.61647 29075 ft 393 kts 276°
2026-05-04 21:18 32.26262 -95.64873 28457 ft 396 kts 277°
2026-05-04 21:18 32.26339 -95.68127 27853 ft 397 kts 276°
2026-05-04 21:19 32.26415 -95.71377 27226 ft 395 kts 276°
2026-05-04 21:19 32.26489 -95.74597 26597 ft 393 kts 276°
2026-05-04 21:19 32.26560 -95.77804 25982 ft 391 kts 275°
2026-05-04 21:19 32.26630 -95.80994 25389 ft 389 kts 275°
2026-05-04 21:20 32.26699 -95.84176 24781 ft 389 kts 275°
2026-05-04 21:20 32.26768 -95.87375 24183 ft 391 kts 274°
2026-05-04 21:20 32.26835 -95.90541 23900 ft 379 kts 274°
2026-05-04 21:20 32.26896 -95.93584 23871 ft 363 kts 275°
2026-05-04 21:21 32.26960 -95.96525 23624 ft 355 kts 275°
2026-05-04 21:21 32.27026 -95.99442 23251 ft 358 kts 274°
2026-05-04 21:21 32.27091 -96.02376 22918 ft 358 kts 274°
2026-05-04 21:21 32.27155 -96.05314 22619 ft 357 kts 274°
2026-05-04 21:22 32.27217 -96.08231 22327 ft 355 kts 274°
2026-05-04 21:22 32.27278 -96.11142 22024 ft 354 kts 274°
2026-05-04 21:22 32.27338 -96.14033 21720 ft 352 kts 274°
2026-05-04 21:22 32.27397 -96.16914 21428 ft 350 kts 274°
2026-05-04 21:23 32.27456 -96.19799 21126 ft 352 kts 274°
2026-05-04 21:23 32.27514 -96.22680 20820 ft 349 kts 274°
2026-05-04 21:23 32.27571 -96.25537 20529 ft 347 kts 274°
2026-05-04 21:23 32.27795 -96.28354 20233 ft 343 kts 282°
2026-05-04 21:24 32.28410 -96.31059 19958 ft 342 kts 290°
2026-05-04 21:24 32.29409 -96.33623 19652 ft 343 kts 298°
2026-05-04 21:24 32.30754 -96.35947 19316 ft 343 kts 307°
2026-05-04 21:24 32.32391 -96.37988 19007 ft 343 kts 313°
2026-05-04 21:25 32.34110 -96.39945 18686 ft 343 kts 313°
2026-05-04 21:25 32.35828 -96.41901 18376 ft 343 kts 313°
2026-05-04 21:25 32.37540 -96.43860 18050 ft 341 kts 313°
2026-05-04 21:25 32.39225 -96.45792 17734 ft 334 kts 313°
2026-05-04 21:26 32.40871 -96.47684 17434 ft 326 kts 313°
2026-05-04 21:26 32.42485 -96.49541 17131 ft 320 kts 313°
2026-05-04 21:26 32.44063 -96.51358 16833 ft 314 kts 313°
2026-05-04 21:26 32.45617 -96.53149 16535 ft 309 kts 313°
2026-05-04 21:27 32.47153 -96.54920 16254 ft 309 kts 313°
2026-05-04 21:27 32.48702 -96.56708 15973 ft 311 kts 313°
2026-05-04 21:27 32.50262 -96.58499 15682 ft 311 kts 313°
2026-05-04 21:27 32.51812 -96.60271 15397 ft 309 kts 313°
2026-05-04 21:28 32.53358 -96.62041 15109 ft 309 kts 314°
2026-05-04 21:28 32.54905 -96.63814 14821 ft 309 kts 314°
2026-05-04 21:28 32.56447 -96.65581 14546 ft 307 kts 313°
2026-05-04 21:28 32.57994 -96.67341 14270 ft 304 kts 314°
2026-05-04 21:29 32.59521 -96.69053 13991 ft 299 kts 314°
2026-05-04 21:29 32.61019 -96.70736 13707 ft 291 kts 314°
2026-05-04 21:29 32.62463 -96.72363 13447 ft 283 kts 314°
2026-05-04 21:29 32.63869 -96.73948 13191 ft 275 kts 314°
2026-05-04 21:30 32.65241 -96.75496 12940 ft 268 kts 313°
2026-05-04 21:30 32.66583 -96.77013 12727 ft 263 kts 313°
2026-05-04 21:30 32.67909 -96.78518 12643 ft 265 kts 313°
2026-05-04 21:30 32.69264 -96.80059 12561 ft 270 kts 313°
2026-05-04 21:31 32.71976 -96.83135 12360 ft 266 kts 313°
2026-05-04 21:31 32.73309 -96.84649 12260 ft 265 kts 313°
2026-05-04 21:31 32.74648 -96.86171 12160 ft 263 kts 313°
2026-05-04 21:32 32.75949 -96.87647 12048 ft 252 kts 313°
2026-05-04 21:32 32.77189 -96.89056 11961 ft 240 kts 312°
2026-05-04 21:32 32.78379 -96.90394 11881 ft 232 kts 317°
2026-05-04 21:32 32.79810 -96.91260 11784 ft 234 kts 341°
2026-05-04 21:33 32.81481 -96.91465 11547 ft 248 kts 352°
2026-05-04 21:33 32.83236 -96.91484 11240 ft 252 kts 354°
2026-05-04 21:33 32.84999 -96.91469 10954 ft 253 kts 354°
2026-05-04 21:33 32.86762 -96.91454 10677 ft 254 kts 354°
2026-05-04 21:34 32.88537 -96.91441 10405 ft 254 kts 354°
2026-05-04 21:34 32.90309 -96.91430 10126 ft 254 kts 354°
2026-05-04 21:34 32.92082 -96.91419 9858 ft 254 kts 354°
2026-05-04 21:34 32.93861 -96.91407 9585 ft 255 kts 354°
2026-05-04 21:35 32.95636 -96.91395 9300 ft 254 kts 354°
2026-05-04 21:35 32.97401 -96.91383 9037 ft 251 kts 354°
2026-05-04 21:35 32.99148 -96.91372 8768 ft 250 kts 354°
2026-05-04 21:35 33.00881 -96.91361 8496 ft 248 kts 354°
2026-05-04 21:36 33.02606 -96.91351 8226 ft 247 kts 354°
2026-05-04 21:36 33.04323 -96.91339 7960 ft 245 kts 354°
2026-05-04 21:36 33.06032 -96.91328 7697 ft 244 kts 354°
2026-05-04 21:36 33.07732 -96.91318 7436 ft 245 kts 354°
2026-05-04 21:37 33.09452 -96.91308 7172 ft 248 kts 354°
2026-05-04 21:37 33.11181 -96.91297 6898 ft 249 kts 355°
2026-05-04 21:37 33.12922 -96.91285 6627 ft 248 kts 355°
2026-05-04 21:37 33.14649 -96.91273 6362 ft 248 kts 355°
2026-05-04 21:38 33.16382 -96.91262 6094 ft 248 kts 355°
2026-05-04 21:38 33.18111 -96.91252 5829 ft 249 kts 355°
2026-05-04 21:38 33.19853 -96.91241 5562 ft 249 kts 355°
2026-05-04 21:38 33.21581 -96.91278 5355 ft 245 kts 353°
2026-05-04 21:39 33.23253 -96.91333 5286 ft 234 kts 353°
2026-05-04 21:39 33.24819 -96.91576 5272 ft 217 kts 330°
2026-05-04 21:39 33.25915 -96.92609 5261 ft 190 kts 294°
2026-05-04 21:39 33.26185 -96.94025 5238 ft 170 kts 255°
2026-05-04 21:40 33.25606 -96.95174 5213 ft 165 kts 217°
2026-05-04 21:40 33.24473 -96.95956 4938 ft 210 kts 210°
2026-05-04 21:40 33.23181 -96.96802 4549 ft 210 kts 210°
2026-05-04 21:40 33.21919 -96.97626 4285 ft 202 kts 209°
2026-05-04 21:41 33.20709 -96.98416 4071 ft 193 kts 209°
2026-05-04 21:41 33.19554 -96.99170 3871 ft 185 kts 208°
2026-05-04 21:41 33.18444 -96.99895 3679 ft 179 kts 208°
2026-05-04 21:41 33.17353 -97.00608 3491 ft 179 kts 208°
2026-05-04 21:42 33.16261 -97.01321 3351 ft 177 kts 208°
2026-05-04 21:42 33.15171 -97.02008 3318 ft 178 kts 202°
2026-05-04 21:42 33.13961 -97.02368 3273 ft 180 kts 188°
2026-05-04 21:42 33.12719 -97.02454 3213 ft 174 kts 184°
2026-05-04 21:43 33.11526 -97.02472 3157 ft 169 kts 183°
2026-05-04 21:43 33.10351 -97.02481 3107 ft 168 kts 183°
2026-05-04 21:43 33.09174 -97.02489 3051 ft 169 kts 183°
2026-05-04 21:43 33.07992 -97.02495 2987 ft 169 kts 183°
2026-05-04 21:44 33.06826 -97.02502 2929 ft 163 kts 183°
2026-05-04 21:44 33.05707 -97.02511 2876 ft 160 kts 183°
2026-05-04 21:44 33.04659 -97.02517 2818 ft 140 kts 183°
2026-05-04 21:44 33.03743 -97.02526 2783 ft 123 kts 183°
2026-05-04 21:45 33.02904 -97.02534 2664 ft 120 kts 183°
2026-05-04 21:45 33.02059 -97.02539 2512 ft 121 kts 182°
2026-05-04 21:45 33.01218 -97.02543 2359 ft 120 kts 182°
2026-05-04 21:45 33.00382 -97.02548 2208 ft 120 kts 182°
2026-05-04 21:46 32.99545 -97.02553 2063 ft 120 kts 181°
2026-05-04 21:46 32.98704 -97.02557 1904 ft 120 kts 181°
2026-05-04 21:46 32.97859 -97.02562 1744 ft 122 kts 181°
2026-05-04 21:46 32.97005 -97.02567 1587 ft 122 kts 180°
2026-05-04 21:47 32.96149 -97.02572 1432 ft 123 kts 180°
2026-05-04 21:47 32.95297 -97.02577 1297 ft 120 kts 180°
2026-05-04 21:47 32.94449 -97.02575 1096 ft 121 kts 180°
2026-05-04 21:47 32.93603 -97.02585 963 ft 120 kts 180°
2026-05-04 21:48 32.92754 -97.02591 823 ft 123 kts 179°
2026-05-04 21:48 32.91885 -97.02594 664 ft 125 kts 179°
2026-05-04 21:48 32.91035 -97.02604 572 ft 114 kts 179°
2026-05-04 21:48 32.90361 -97.02604 573 ft 78 kts 180°
2026-05-04 21:49 32.89939 -97.02607 571 ft 42 kts 180°
2026-05-04 21:49 32.89726 -97.02612 570 ft 22 kts 188°
2026-05-04 21:49 32.89581 -97.02674 570 ft 21 kts 207°
2026-05-04 21:49 32.89458 -97.02759 572 ft 12 kts 211°
2026-05-04 21:50 32.89400 -97.02829 573 ft 9 kts 245°
2026-05-04 21:50 32.89392 -97.02908 575 ft 10 kts 269°
2026-05-04 21:50 32.89392 -97.02997 577 ft 11 kts 271°
2026-05-04 21:50 32.89392 -97.03102 579 ft 10 kts 270°
2026-05-04 21:51 32.89389 -97.03158 580 ft 6 kts 250°
2026-05-04 21:51 32.89344 -97.03194 580 ft 9 kts 189°
2026-05-04 21:51 32.89269 -97.03198 579 ft 11 kts 180°
2026-05-04 21:51 32.89184 -97.03198 579 ft 12 kts 180°
2026-05-04 21:52 32.89092 -97.03198 579 ft 13 kts 180°
2026-05-04 21:52 32.88994 -97.03198 578 ft 14 kts 180°
2026-05-04 21:52 32.88890 -97.03199 578 ft 15 kts 180°
2026-05-04 21:52 32.88780 -97.03198 578 ft 16 kts 180°
2026-05-04 21:53 32.88668 -97.03199 577 ft 13 kts 179°
2026-05-04 21:53 32.88610 -97.03219 578 ft 8 kts 239°
2026-05-04 21:53 32.88602 -97.03297 578 ft 10 kts 269°
2026-05-04 21:53 32.88601 -97.03394 579 ft 12 kts 269°
2026-05-04 21:54 32.88602 -97.03504 579 ft 13 kts 270°
2026-05-04 21:54 32.88603 -97.03623 579 ft 15 kts 270°
2026-05-04 21:54 32.88603 -97.03753 578 ft 16 kts 271°
2026-05-04 21:54 32.88604 -97.03890 578 ft 16 kts 271°
2026-05-04 21:55 32.88605 -97.04030 579 ft 17 kts 269°
2026-05-04 21:55 32.88604 -97.04169 580 ft 16 kts 270°
2026-05-04 21:55 32.88604 -97.04305 581 ft 16 kts 270°
2026-05-04 21:55 32.88604 -97.04443 582 ft 17 kts 270°
2026-05-04 21:56 32.88606 -97.04587 584 ft 17 kts 270°
2026-05-04 21:56 32.88607 -97.04712 585 ft 11 kts 270°
2026-05-04 21:56 32.88636 -97.04768 586 ft 9 kts 348°
2026-05-04 21:56 32.88707 -97.04771 588 ft 10 kts
2026-05-04 21:57 32.88784 -97.04771 590 ft 11 kts
2026-05-04 21:57 32.88869 -97.04770 591 ft 12 kts
2026-05-04 21:57 32.88964 -97.04770 593 ft 14 kts
2026-05-04 21:57 32.89064 -97.04769 595 ft 14 kts
2026-05-04 21:58 32.89169 -97.04769 597 ft 15 kts
2026-05-04 21:58 32.89277 -97.04769 599 ft 15 kts 360°
2026-05-04 21:58 32.89358 -97.04768 601 ft 9 kts
2026-05-04 21:58 32.89430 -97.04767 603 ft 11 kts
2026-05-04 21:59 32.89512 -97.04767 605 ft 12 kts 360°
2026-05-04 21:59 32.89575 -97.04756 606 ft 7 kts 49°
2026-05-04 21:59 32.89588 -97.04678 605 ft 11 kts 89°
2026-05-04 21:59 32.89587 -97.04591 603 ft 4 kts 91°
2026-05-04 22:00 32.89587 -97.04577 603 ft 0 kts 91°